This is the latest recevied weather packets stored in our database for station/object XW7RMR. If no packets are shown the sender has not sent any weather packets the latest 10 day(s).
| Time | Temp. | Humidity | Pressure | Rain* | Wind** | Luminosity | Snow |
|---|---|---|---|---|---|---|---|
| 1777462480 | 5° C | 95% | 1023.4 hPa | 0 mm | - | 0 W/m² | - |
| 1777462177 | 5° C | 95% | 1023.3 hPa | 0 mm | - | 0 W/m² | - |
| 1777461873 | 5.56° C | 95% | 1023.3 hPa | 0 mm | - | 0 W/m² | - |
| 1777461570 | 5.56° C | 95% | 1023.3 hPa | 0 mm | - | 0 W/m² | - |
| 1777461266 | 5.56° C | 94% | 1023.2 hPa | 0 mm | - | 0 W/m² | - |
| 1777460961 | 6.11° C | 94% | 1023.4 hPa | 0 mm | - | 0 W/m² | - |
| 1777460657 | 6.11° C | 94% | 1023.3 hPa | 0 mm | - | 0 W/m² | - |
| 1777460353 | 6.11° C | 94% | 1023.3 hPa | 0 mm | - | 0 W/m² | - |
| 1777460049 | 6.11° C | 93% | 1023.3 hPa | 0 mm | - | 0 W/m² | - |
| 1777459746 | 6.67° C | 93% | 1023.2 hPa | 0 mm | - | 0 W/m² | - |
| 1777459443 | 6.67° C | 93% | 1023 hPa | 0 mm | - | 0 W/m² | - |
| 1777459141 | 6.11° C | 93% | 1023 hPa | 0 mm | - | 0 W/m² | - |
| 1777458838 | 6.67° C | 93% | 1023.2 hPa | 0 mm | - | 0 W/m² | - |
| 1777458534 | 6.67° C | 92% | 1023.2 hPa | 0 mm | - | 0 W/m² | - |
| 1777458231 | 6.67° C | 91% | 1023 hPa | 0 mm | - | 0 W/m² | - |
| 1777457926 | 6.67° C | 91% | 1022.9 hPa | 0 mm | - | 0 W/m² | - |
| 1777457623 | 6.67° C | 89% | 1022.9 hPa | 0 mm | - | 0 W/m² | - |
| 1777457323 | 7.22° C | 89% | 1023 hPa | 0 mm | - | 0 W/m² | - |
| 1777457018 | 7.22° C | 86% | 1023 hPa | 0 mm | - | 0 W/m² | - |
| 1777456715 | 7.22° C | 86% | 1023 hPa | 0 mm | - | 0 W/m² | - |
| 1777456413 | 7.22° C | 86% | 1023.1 hPa | 0 mm | - | 0 W/m² | - |
| 1777456111 | 7.78° C | 84% | 1023.2 hPa | 0 mm | - | 0 W/m² | - |
| 1777455807 | 7.78° C | 81% | 1023.1 hPa | 0 mm | - | 0 W/m² | - |
| 1777455504 | 7.78° C | 80% | 1023 hPa | 0 mm | - | 0 W/m² | - |
| 1777455200 | 7.78° C | 78% | 1023 hPa | 0 mm | - | 0 W/m² | - |
* Rain latest hour (hover to see other rain measurements)
** Current wind speed in m/s (hover to see current wind gust speed)